Rbgn^[z[y[W
メイン
   新天体発見情報
     Comet C/2018 N1 (NEOWISE)
投稿するにはまず登録を

フラット表示 前のトピック | 次のトピック
投稿者 スレッド
佐藤裕久
投稿日時: 2018-7-10 22:50
モデレータ
登録日: 2005-6-12
居住地: 日本
投稿: 2505
オンライン
Comet C/2018 N1 (NEOWISE)

Joseph R. Masiero (Jet推進研究所, NASA)の通報によると、7月2日、Near-Earth Object Wide-
field Infrared Survey Explorer (NEOWISE:地球近傍天体広域赤外線探査衛星、以前のWISE:広域
赤外線探査衛星;CBET 4225参照)で得た赤外線画像から彗星を発見した。コマはざっと見ておよそ
1'.5あった。光度は光学波長の大きさは過去のWISEとNEOWISE彗星のから推定される。
小惑星センターのPCCP webpageに公表後、L. S. Amaral (Rio de Janeiro, ブラジル、7月5.3日UT、
0.31-m f/2.9 反射望遠鏡で得た3枚の60秒のCCD露出から、拡散状の15"のコマが見え、r光度は
15等であった)の注記があった。
6月29.6日UT、HaleakalaにあるATLAS 0.5-m f/2 Schmidt望遠鏡による光度16.1-17.2等の発見前の
観測があった。

発見位置は次のとおり、

     2018 UT             R.A. (2000) Decl.       Mag.
     July  2.37056    1 08 46.76   - 9 46 43.7    16
           2.50146    1 08 32.22   - 9 49 33.1
           2.63224    1 08 17.56   - 9 52 24.8
           2.69769    1 08 10.15   - 9 53 51.1
           2.76314    1 08 02.63   - 9 55 17.7

放物線軌道要素と位置推算表は次のとおり、

Orbital elements:
    C/2018 N1 (NEOWISE)
T 2018 Aug. 1.97976 TT                                  MPCW
q   1.3079121            (2000.0)            P               Q
                   Peri.  354.52019     +0.46246244     -0.82516473
                   Node   292.42971     -0.79956309     -0.54624788
e   1.0            Incl.  159.45495     -0.38318059     +0.14393200
From 19 observations 2018 June 29-July 5.

Ephemeris:
    C/2018 N1 (NEOWISE)
Date    TT    R. A. (2000) Decl.     Delta      r     Elong.  Phase   m1
2018 06 06    01 26 56.3 -05 38 48   1.8316  1.5564    58.1    33.6  18.7
...
2018 06 21    01 21 51.4 -07 03 10   1.3573  1.4499    73.7    42.3  17.8
...
2018 06 29    01 14 06.3 -08 43 07   1.0881  1.4031    83.6    46.0  17.2
...
2018 07 05    01 03 18.2 -10 49 39   0.8828  1.3734    92.3    47.7  16.6
2018 07 06    01 00 49.5 -11 17 29   0.8487  1.3690    94.0    47.8  16.5
2018 07 07    00 58 05.1 -11 47 49   0.8146  1.3647    95.7    47.8  16.4
...
2018 07 13    00 33 36.6 -16 02 22   0.6140  1.3419   108.2    46.0  15.7
...
2018 07 21    23 10 02.1 -27 20 24   0.3833  1.3203   136.4    32.1  14.6
...
2018 08 05    16 45 57.0 -25 03 45   0.4560  1.3087   120.9    41.7  15.0

(CBET 4532、MPEC 2018-N18)

フラット表示 前のトピック | 次のトピック

題名 投稿者 日時
 » Comet C/2018 N1 (NEOWISE) 佐藤裕久 2018-7-10 22:50

投稿するにはまず登録を
 
© 1999 Tsutomu Seki.